Location: Austin
(30.3000°N, 97.7500°W)
Time: 05:44:28
(UTC-06:00)

CSL-04 Rocket - Pass Details

Date: 03 March 2026
Orbit: 805 x 858 km, 98.7° (Epoch: 5 March)

Event Time Altitude Azimuth Distance (km) Brightness Sun altitude
Exits shadow 20:03:41 42° 97° (E) 1,133 3.9 -20.7°
Maximum altitude 20:04:26 45° 73° (ENE) 1,086 3.8 -20.9°
Drops below altitude 10° 20:09:28 10° 2° (N) 2,404 6.1 -21.9°
Sets 20:11:54 0° 356° (N) 3,345 6.9 -22.5°
